User: anonymous   Login
Location: Unspecified
(0.0000°N, 0.0000°E)
Time: 02:26:23
(UTC+02:00)
Language:

Iridium 75 - Orbit

View from above orbital plane
View from above orbital plane
View from above satellite
View from above satellite

Ground track
Ground track

The orbit data is extracted from the following two-line orbital elements,

1 25346U 98032E   16127.26287336  .00000238  00000-0  77847-4 0  9996
2 25346  86.4000  34.2226 0002138  83.9381  27.9529 14.34217806941346
Epoch (UTC): 06 May 2016 06:18:32
Eccentricity: 0.0002138
inclination: 86.4000°
perigee height: 776 km
apogee height: 779 km
right ascension of ascending node: 34.2226°
argument of perigee: 83.9381°
revolutions per day: 14.34217806
mean anomaly at epoch: 27.9529°
orbit number at epoch: 94134

The dashed part of the orbit path shows where the satellite is in the earth's shadow,  

DLR